ETH42 SKBO-GOBD

Flight info

Callsign ETH42
Flight time 7h 25m
Altitude 39000
Route MAVDA UW20 AUC DCT MIQ UN669 ELJEZ/M083F390 DCT 2150N DCT 2340N DCT 22N036W DCT ERNEK/N0478F390 DCT EVKAS DCT BVT DCT MOGSA DCT PIVSA
Aircraft B77L/H-SDE1E2E3FGHIJ2J3J4J5M1RWXY/LB1D1

Departure

Time 2026-04-25 13:55
Airport El Dorado International Airport (SKBO)

Arrival

Time 2026-04-25 21:20
Airport Blaise Diagne International Airport (GOBD)
Time Latitude Longitude Altitude Speed Heading
2026-04-25 12:56 4.69057 -74.13678 8370 ft 0 kts 37°
2026-04-25 13:26 4.69046 -74.13686 8370 ft 4 kts 37°
2026-04-25 13:27 4.69028 -74.13701 8370 ft 3 kts 36°
2026-04-25 13:27 4.69005 -74.13714 8371 ft 4 kts 14°
2026-04-25 13:27 4.68979 -74.13715 8370 ft 4 kts 340°
2026-04-25 13:27 4.68957 -74.13701 8370 ft 4 kts 312°
2026-04-25 13:28 4.68941 -74.13680 8370 ft 4 kts 302°
2026-04-25 13:28 4.68931 -74.13665 8370 ft 3 kts 307°
2026-04-25 13:28 4.68947 -74.13685 8370 ft 4 kts 307°
2026-04-25 13:28 4.68963 -74.13706 8370 ft 4 kts 307°
2026-04-25 13:29 4.68980 -74.13728 8370 ft 4 kts 307°
2026-04-25 13:29 4.68996 -74.13750 8370 ft 4 kts 307°
2026-04-25 13:29 4.69004 -74.13761 8370 ft 0 kts 307°
2026-04-25 13:33 4.69005 -74.13761 8370 ft 0 kts 307°
2026-04-25 13:34 4.69008 -74.13766 8370 ft 1 kts 307°
2026-04-25 13:34 4.69015 -74.13775 8371 ft 2 kts 307°
2026-04-25 13:34 4.69026 -74.13790 8371 ft 3 kts 307°
2026-04-25 13:34 4.69041 -74.13810 8371 ft 4 kts 307°
2026-04-25 13:35 4.69062 -74.13838 8371 ft 7 kts 307°
2026-04-25 13:35 4.69095 -74.13893 8371 ft 12 kts 289°
2026-04-25 13:35 4.69115 -74.13988 8371 ft 16 kts 286°
2026-04-25 13:35 4.69184 -74.14091 8371 ft 19 kts 307°
2026-04-25 13:36 4.69264 -74.14197 8371 ft 19 kts 307°
2026-04-25 13:36 4.69345 -74.14303 8370 ft 19 kts 307°
2026-04-25 13:36 4.69425 -74.14408 8370 ft 19 kts 307°
2026-04-25 13:36 4.69505 -74.14515 8370 ft 19 kts 307°
2026-04-25 13:37 4.69585 -74.14622 8370 ft 19 kts 307°
2026-04-25 13:37 4.69666 -74.14728 8370 ft 19 kts 307°
2026-04-25 13:37 4.69746 -74.14835 8370 ft 19 kts 308°
2026-04-25 13:37 4.69828 -74.14940 8370 ft 19 kts 308°
2026-04-25 13:38 4.69910 -74.15045 8370 ft 19 kts 307°
2026-04-25 13:38 4.69991 -74.15152 8370 ft 19 kts 307°
2026-04-25 13:38 4.70071 -74.15258 8371 ft 19 kts 307°
2026-04-25 13:38 4.70151 -74.15365 8370 ft 19 kts 306°
2026-04-25 13:39 4.70230 -74.15472 8371 ft 19 kts 306°
2026-04-25 13:39 4.70309 -74.15577 8370 ft 19 kts 307°
2026-04-25 13:39 4.70390 -74.15683 8370 ft 19 kts 307°
2026-04-25 13:39 4.70471 -74.15789 8371 ft 19 kts 307°
2026-04-25 13:40 4.70552 -74.15895 8370 ft 19 kts 307°
2026-04-25 13:40 4.70633 -74.16001 8371 ft 19 kts 307°
2026-04-25 13:40 4.70713 -74.16108 8370 ft 19 kts 306°
2026-04-25 13:40 4.70793 -74.16215 8371 ft 19 kts 307°
2026-04-25 13:41 4.70872 -74.16320 8371 ft 19 kts 307°
2026-04-25 13:41 4.70951 -74.16423 8370 ft 16 kts 307°
2026-04-25 13:41 4.71019 -74.16514 8371 ft 16 kts 307°
2026-04-25 13:41 4.71084 -74.16600 8370 ft 12 kts 307°
2026-04-25 13:42 4.71116 -74.16643 8370 ft 6 kts 307°
2026-04-25 13:42 4.71130 -74.16661 8370 ft 1 kts 307°
2026-04-25 13:42 4.71131 -74.16662 8370 ft 0 kts 307°
2026-04-25 13:44 4.71138 -74.16671 8370 ft 4 kts 307°
2026-04-25 13:44 4.71161 -74.16702 8370 ft 6 kts 307°
2026-04-25 13:44 4.71182 -74.16730 8370 ft 1 kts 307°
2026-04-25 13:45 4.71185 -74.16734 8370 ft 1 kts 306°
2026-04-25 13:45 4.71188 -74.16738 8370 ft 1 kts 306°
2026-04-25 13:45 4.71189 -74.16738 8370 ft 0 kts 306°
2026-04-25 13:47 4.71194 -74.16746 8371 ft 3 kts 306°
2026-04-25 13:47 4.71202 -74.16772 8370 ft 5 kts 272°
2026-04-25 13:47 4.71181 -74.16809 8370 ft 7 kts 223°
2026-04-25 13:48 4.71160 -74.16825 8369 ft 0 kts 217°
2026-04-25 13:51 4.71153 -74.16831 8369 ft 7 kts 217°
2026-04-25 13:52 4.71065 -74.16889 8368 ft 12 kts 196°
2026-04-25 13:52 4.71018 -74.16870 8368 ft 0 kts 130°
2026-04-25 13:54 4.71013 -74.16864 8367 ft 9 kts 130°
2026-04-25 13:54 4.70838 -74.16636 8368 ft 75 kts 127°
2026-04-25 13:54 4.70406 -74.16065 8369 ft 132 kts 127°
2026-04-25 13:54 4.69744 -74.15192 8370 ft 180 kts 128°
2026-04-25 13:55 4.68953 -74.14146 8680 ft 188 kts 126°
2026-04-25 13:55 4.68148 -74.13090 9076 ft 194 kts 129°
2026-04-25 13:55 4.67033 -74.12346 9339 ft 199 kts 172°
2026-04-25 13:55 4.65700 -74.12613 9615 ft 203 kts 219°
2026-04-25 13:56 4.64958 -74.13770 9909 ft 202 kts 265°
2026-04-25 13:56 4.65104 -74.15161 10081 ft 210 kts 279°
2026-04-25 13:56 4.64867 -74.16638 10122 ft 229 kts 236°
2026-04-25 13:56 4.63784 -74.17851 10341 ft 239 kts 229°
2026-04-25 13:57 4.62762 -74.19193 10893 ft 242 kts 235°
2026-04-25 13:57 4.62123 -74.20111 11342 ft 243 kts 235°
2026-04-25 13:57 4.61201 -74.22150 12186 ft 242 kts 268°
2026-04-25 13:57 4.61043 -74.23894 12456 ft 265 kts 261°
2026-04-25 13:58 4.60681 -74.25804 12704 ft 292 kts 258°
2026-04-25 13:58 4.59873 -74.27727 12872 ft 320 kts 234°
2026-04-25 13:58 4.58307 -74.29413 13056 ft 344 kts 225°
2026-04-25 13:58 4.56547 -74.31172 13280 ft 371 kts 226°
2026-04-25 13:59 4.54550 -74.32897 13486 ft 390 kts 210°
2026-04-25 13:59 4.51945 -74.33743 14142 ft 402 kts 186°
2026-04-25 13:59 4.49157 -74.33466 15012 ft 407 kts 163°
2026-04-25 13:59 4.46589 -74.32267 15889 ft 409 kts 147°
2026-04-25 14:00 4.44409 -74.30411 16672 ft 415 kts 131°
2026-04-25 14:00 4.42792 -74.28003 17417 ft 421 kts 115°
2026-04-25 14:00 4.41953 -74.25235 18162 ft 424 kts 97°
2026-04-25 14:00 4.42041 -74.22281 18897 ft 428 kts 78°
2026-04-25 14:01 4.43089 -74.19484 19617 ft 432 kts 60°
2026-04-25 14:01 4.44715 -74.16944 20229 ft 436 kts 54°
2026-04-25 14:01 4.46572 -74.14511 20782 ft 443 kts 51°
2026-04-25 14:01 4.48531 -74.12109 21395 ft 447 kts 51°
2026-04-25 14:02 4.50517 -74.09693 22023 ft 451 kts 51°
2026-04-25 14:02 4.52502 -74.07248 22643 ft 453 kts 51°
2026-04-25 14:02 4.54477 -74.04770 23236 ft 457 kts 52°
2026-04-25 14:02 4.55778 -74.03113 23619 ft 459 kts 52°
2026-04-25 14:03 4.58386 -73.99748 24293 ft 464 kts 53°
2026-04-25 14:03 4.60367 -73.97172 24390 ft 468 kts 53°
2026-04-25 14:03 4.62346 -73.94590 24388 ft 466 kts 53°
2026-04-25 14:03 4.64318 -73.92013 24384 ft 465 kts 53°
2026-04-25 14:04 4.66287 -73.89438 24371 ft 465 kts 53°
2026-04-25 14:04 4.68258 -73.86861 24368 ft 466 kts 53°
2026-04-25 14:04 4.70230 -73.84284 24363 ft 466 kts 53°
2026-04-25 14:04 4.72204 -73.81707 24353 ft 466 kts 53°
2026-04-25 14:05 4.74177 -73.79131 24376 ft 465 kts 53°
2026-04-25 14:05 4.76149 -73.76553 24385 ft 466 kts 53°
2026-04-25 14:05 4.78094 -73.74013 24374 ft 466 kts 53°
2026-04-25 14:05 4.80065 -73.71438 24377 ft 466 kts 53°
2026-04-25 14:06 4.82037 -73.68863 24373 ft 466 kts 53°
2026-04-25 14:06 4.84010 -73.66286 24369 ft 466 kts 53°
2026-04-25 14:06 4.85985 -73.63706 24316 ft 467 kts 53°
2026-04-25 14:06 4.87967 -73.61115 24572 ft 470 kts 53°
2026-04-25 14:07 4.89962 -73.58507 25149 ft 472 kts 53°
2026-04-25 14:07 4.91962 -73.55894 25709 ft 473 kts 53°
2026-04-25 14:07 4.93969 -73.53273 26209 ft 476 kts 53°
2026-04-25 14:07 4.95989 -73.50632 26640 ft 479 kts 53°
2026-04-25 14:08 4.98026 -73.47968 27067 ft 483 kts 53°
2026-04-25 14:08 5.00050 -73.45323 27497 ft 486 kts 53°
2026-04-25 14:08 5.02114 -73.42625 27941 ft 489 kts 53°
2026-04-25 14:08 5.04186 -73.39916 28356 ft 491 kts 53°
2026-04-25 14:09 5.06272 -73.37187 28750 ft 494 kts 53°
2026-04-25 14:09 5.08371 -73.34441 29124 ft 497 kts 53°
2026-04-25 14:09 5.10481 -73.31680 29506 ft 500 kts 53°
2026-04-25 14:09 5.11881 -73.29848 29735 ft 501 kts 53°
2026-04-25 14:10 5.14727 -73.26125 30229 ft 503 kts 53°
2026-04-25 14:10 5.16856 -73.23339 30719 ft 502 kts 53°
2026-04-25 14:10 5.18978 -73.20561 31263 ft 500 kts 54°
2026-04-25 14:10 5.21088 -73.17799 31801 ft 498 kts 54°
2026-04-25 14:11 5.23191 -73.15045 32323 ft 496 kts 54°
2026-04-25 14:11 5.25259 -73.12338 32828 ft 495 kts 54°
2026-04-25 14:11 5.27350 -73.09601 33329 ft 493 kts 54°
2026-04-25 14:11 5.29434 -73.06873 33838 ft 492 kts 54°
2026-04-25 14:12 5.31509 -73.04155 34337 ft 490 kts 54°
2026-04-25 14:12 5.33579 -73.01444 34805 ft 489 kts 54°
2026-04-25 14:12 5.35644 -72.98737 35234 ft 488 kts 54°
2026-04-25 14:12 5.37706 -72.96034 35617 ft 488 kts 54°
2026-04-25 14:13 5.39769 -72.93330 35995 ft 488 kts 54°
2026-04-25 14:13 5.41804 -72.90663 36350 ft 488 kts 54°
2026-04-25 14:13 5.43866 -72.87960 36691 ft 488 kts 54°
2026-04-25 14:13 5.45929 -72.85254 37009 ft 488 kts 54°
2026-04-25 14:14 5.47989 -72.82553 37305 ft 488 kts 54°
2026-04-25 14:14 5.50055 -72.79847 37575 ft 488 kts 54°
2026-04-25 14:14 5.52120 -72.77138 37851 ft 488 kts 54°
2026-04-25 14:14 5.54184 -72.74429 38156 ft 488 kts 54°
2026-04-25 14:15 5.56245 -72.71724 38478 ft 487 kts 55°
2026-04-25 14:15 5.56911 -72.70851 38629 ft 485 kts 55°
2026-04-25 14:15 5.60301 -72.66402 39089 ft 484 kts 55°
2026-04-25 14:16 5.64406 -72.61013 39082 ft 485 kts 55°
2026-04-25 14:16 5.68483 -72.55663 39067 ft 480 kts 55°
2026-04-25 14:17 5.72522 -72.50362 39069 ft 476 kts 55°
2026-04-25 14:17 5.76822 -72.45391 39081 ft 476 kts 47°
2026-04-25 14:17 5.79174 -72.43049 38978 ft 475 kts 47°
2026-04-25 14:18 5.81455 -72.40649 38704 ft 475 kts 50°
2026-04-25 14:18 5.83636 -72.38152 38340 ft 476 kts 52°
2026-04-25 14:18 5.85725 -72.35569 37916 ft 478 kts 54°
2026-04-25 14:18 5.87763 -72.32916 37420 ft 482 kts 55°
2026-04-25 14:19 5.89774 -72.30223 37137 ft 482 kts 56°
2026-04-25 14:19 5.93776 -72.24806 37060 ft 484 kts 56°
2026-04-25 14:20 5.97811 -72.19376 37055 ft 486 kts 56°
2026-04-25 14:20 6.01839 -72.13984 37055 ft 485 kts 55°
2026-04-25 14:21 6.05890 -72.08571 37051 ft 485 kts 55°
2026-04-25 14:21 6.09944 -72.03156 37054 ft 485 kts 55°
2026-04-25 14:22 6.13992 -71.97744 37057 ft 484 kts 55°
2026-04-25 14:22 6.18009 -71.92369 37058 ft 484 kts 56°
2026-04-25 14:23 6.22055 -71.86953 37053 ft 485 kts 56°
2026-04-25 14:23 6.26101 -71.81537 37053 ft 485 kts 55°
2026-04-25 14:24 6.30153 -71.76115 37051 ft 485 kts 56°
2026-04-25 14:24 6.34207 -71.70685 37046 ft 486 kts 55°
2026-04-25 14:25 6.38233 -71.65289 37044 ft 486 kts 55°
2026-04-25 14:25 6.42283 -71.59861 37043 ft 485 kts 56°
2026-04-25 14:26 6.46341 -71.54422 37052 ft 487 kts 55°
2026-04-25 14:26 6.50405 -71.48978 37038 ft 486 kts 55°
2026-04-25 14:27 6.54457 -71.43540 37043 ft 486 kts 55°
2026-04-25 14:27 6.58478 -71.38144 37026 ft 485 kts 55°
2026-04-25 14:28 6.62522 -71.32716 37028 ft 485 kts 55°
2026-04-25 14:28 6.66564 -71.27286 37017 ft 485 kts 55°
2026-04-25 14:29 6.70606 -71.21857 37019 ft 485 kts 55°
2026-04-25 14:29 6.74619 -71.16467 37016 ft 485 kts 55°
2026-04-25 14:30 6.78660 -71.11036 37009 ft 485 kts 55°
2026-04-25 14:30 6.84727 -71.02881 37008 ft 485 kts 55°
2026-04-25 14:31 6.88769 -70.97444 37001 ft 486 kts 55°
2026-04-25 14:31 6.92791 -70.92032 37002 ft 486 kts 55°
2026-04-25 14:32 6.96840 -70.86581 36998 ft 486 kts 55°
2026-04-25 14:32 7.00891 -70.81129 36991 ft 487 kts 55°
2026-04-25 14:33 7.04944 -70.75670 36992 ft 487 kts 55°
2026-04-25 14:33 7.09300 -70.70450 36993 ft 488 kts 48°
2026-04-25 14:34 7.14012 -70.65587 36991 ft 489 kts 47°
2026-04-25 14:34 7.18770 -70.60699 36992 ft 489 kts 47°
2026-04-25 14:35 7.23508 -70.55785 36994 ft 489 kts 48°
2026-04-25 14:35 7.28238 -70.50850 36996 ft 490 kts 48°
2026-04-25 14:36 7.32966 -70.45910 37000 ft 490 kts 48°
2026-04-25 14:36 7.37664 -70.41003 37000 ft 490 kts 48°
2026-04-25 14:37 7.42397 -70.36060 37000 ft 490 kts 48°
2026-04-25 14:37 7.47135 -70.31110 37001 ft 491 kts 48°
2026-04-25 14:38 7.51882 -70.26146 37008 ft 495 kts 48°
2026-04-25 14:38 7.56661 -70.21151 36995 ft 494 kts 48°
2026-04-25 14:39 7.61397 -70.16203 36998 ft 493 kts 48°
2026-04-25 14:39 7.66145 -70.11234 37005 ft 492 kts 48°
2026-04-25 14:40 7.70885 -70.06271 37010 ft 491 kts 48°
2026-04-25 14:40 7.75615 -70.01314 37014 ft 491 kts 48°
2026-04-25 14:41 7.80321 -69.96386 37007 ft 491 kts 48°
2026-04-25 14:41 7.85060 -69.91421 37011 ft 492 kts 48°
2026-04-25 14:42 7.88233 -69.88097 37011 ft 492 kts 48°
2026-04-25 14:42 7.94550 -69.81472 37019 ft 493 kts 48°
2026-04-25 14:43 7.99303 -69.76490 37010 ft 493 kts 48°
2026-04-25 14:43 8.04054 -69.71503 37010 ft 493 kts 48°
2026-04-25 14:44 8.08773 -69.66547 37018 ft 493 kts 48°
2026-04-25 14:44 8.13526 -69.61556 37019 ft 493 kts 48°
2026-04-25 14:45 8.18281 -69.56558 37017 ft 493 kts 48°
2026-04-25 14:45 8.23036 -69.51566 37019 ft 493 kts 48°
2026-04-25 14:46 8.27792 -69.46567 37020 ft 494 kts 48°
2026-04-25 14:46 8.32518 -69.41597 37026 ft 494 kts 48°
2026-04-25 14:47 8.35700 -69.38249 37031 ft 494 kts 48°
2026-04-25 14:47 8.42036 -69.31584 37028 ft 494 kts 48°
2026-04-25 14:48 8.46798 -69.26572 37033 ft 494 kts 48°
2026-04-25 14:48 8.51526 -69.21587 37044 ft 495 kts 48°
2026-04-25 14:49 8.56293 -69.16566 37045 ft 495 kts 48°
2026-04-25 14:49 8.61062 -69.11541 37043 ft 495 kts 48°
2026-04-25 14:50 8.65830 -69.06515 37047 ft 495 kts 48°
2026-04-25 14:50 8.70598 -69.01486 37046 ft 496 kts 48°
2026-04-25 14:51 8.75364 -68.96452 37047 ft 494 kts 48°
2026-04-25 14:51 8.80097 -68.91467 37033 ft 495 kts 48°
2026-04-25 14:52 8.84862 -68.86429 37050 ft 496 kts 48°
2026-04-25 14:52 8.88825 -68.82238 37050 ft 496 kts 48°
2026-04-25 14:53 8.94412 -68.76333 37052 ft 497 kts 48°
2026-04-25 14:53 8.99190 -68.71280 37055 ft 497 kts 48°
2026-04-25 14:54 9.03939 -68.66259 37056 ft 497 kts 48°
2026-04-25 14:54 9.08726 -68.61197 37054 ft 498 kts 48°
2026-04-25 14:55 9.13506 -68.56135 37051 ft 497 kts 48°
2026-04-25 14:55 9.18285 -68.51075 37059 ft 497 kts 48°
2026-04-25 14:56 9.23030 -68.46047 37056 ft 497 kts 48°
2026-04-25 14:56 9.27807 -68.40983 37058 ft 497 kts 48°
2026-04-25 14:57 9.32583 -68.35918 37053 ft 497 kts 48°
2026-04-25 14:57 9.37358 -68.30850 37053 ft 497 kts 48°
2026-04-25 14:58 9.42106 -68.25814 37053 ft 498 kts 48°
2026-04-25 14:58 9.46892 -68.20733 37057 ft 498 kts 48°
2026-04-25 14:59 9.51676 -68.15649 37057 ft 499 kts 48°
2026-04-25 14:59 9.56469 -68.10560 37056 ft 499 kts 48°
2026-04-25 15:00 9.61263 -68.05463 37048 ft 500 kts 48°
2026-04-25 15:00 9.66027 -68.00395 37043 ft 500 kts 48°
2026-04-25 15:01 9.70821 -67.95294 37042 ft 499 kts 48°
2026-04-25 15:01 9.75605 -67.90197 37048 ft 499 kts 48°
2026-04-25 15:02 9.80397 -67.85096 37036 ft 500 kts 48°
2026-04-25 15:02 9.85160 -67.80023 37043 ft 500 kts 48°
2026-04-25 15:03 9.89945 -67.74920 37051 ft 499 kts 48°
2026-04-25 15:03 9.94728 -67.69819 37049 ft 499 kts 48°
2026-04-25 15:04 9.99512 -67.64717 37035 ft 499 kts 48°
2026-04-25 15:04 10.04297 -67.59610 37031 ft 499 kts 48°
2026-04-25 15:05 10.09048 -67.54533 37040 ft 499 kts 48°
2026-04-25 15:06 10.14950 -67.48227 37029 ft 499 kts 48°
2026-04-25 15:06 10.19732 -67.43116 37024 ft 500 kts 48°
2026-04-25 15:07 10.24521 -67.37998 37017 ft 500 kts 48°
2026-04-25 15:07 10.29275 -67.32909 37009 ft 500 kts 48°
2026-04-25 15:08 10.34062 -67.27781 36992 ft 500 kts 48°
2026-04-25 15:08 10.38847 -67.22656 36986 ft 501 kts 48°
2026-04-25 15:09 10.43640 -67.17521 36984 ft 501 kts 48°
2026-04-25 15:09 10.50810 -67.09832 36972 ft 502 kts 48°
2026-04-25 15:10 10.55612 -67.04678 36972 ft 502 kts 48°
2026-04-25 15:11 10.62546 -66.96724 36949 ft 500 kts 57°
2026-04-25 15:11 10.66424 -66.90858 36959 ft 500 kts 58°
2026-04-25 15:12 10.72191 -66.82070 36964 ft 501 kts 58°
2026-04-25 15:12 10.74797 -66.78144 36964 ft 501 kts 58°
2026-04-25 15:13 10.81953 -66.67392 36964 ft 501 kts 57°
2026-04-25 15:14 10.85837 -66.61556 36962 ft 502 kts 57°
2026-04-25 15:14 10.89744 -66.55677 36964 ft 501 kts 57°
2026-04-25 15:15 10.93648 -66.49798 36961 ft 501 kts 58°
2026-04-25 15:15 10.97549 -66.43918 36964 ft 501 kts 58°
2026-04-25 15:16 11.01454 -66.38030 36963 ft 502 kts 58°
2026-04-25 15:16 11.07350 -66.29272 36964 ft 503 kts 57°
2026-04-25 15:17 11.13330 -66.20494 36972 ft 503 kts 57°
2026-04-25 15:18 11.17305 -66.14631 36973 ft 503 kts 57°
2026-04-25 15:18 11.23236 -66.05873 36972 ft 503 kts 57°
2026-04-25 15:19 11.25897 -66.01944 36972 ft 504 kts 57°
2026-04-25 15:19 11.31194 -65.94117 36979 ft 504 kts 57°
2026-04-25 15:20 11.35179 -65.88222 36969 ft 505 kts 57°
2026-04-25 15:20 11.39137 -65.82368 36975 ft 505 kts 57°
2026-04-25 15:21 11.43115 -65.76472 36976 ft 505 kts 57°
2026-04-25 15:21 11.47090 -65.70576 36975 ft 502 kts 57°
2026-04-25 15:22 11.51049 -65.64703 36985 ft 502 kts 57°
2026-04-25 15:22 11.55015 -65.58852 36981 ft 501 kts 57°
2026-04-25 15:23 11.58932 -65.53008 36976 ft 503 kts 57°
2026-04-25 15:23 11.62892 -65.47106 36976 ft 505 kts 57°
2026-04-25 15:24 11.66871 -65.41191 36974 ft 506 kts 57°
2026-04-25 15:24 11.69527 -65.37279 36973 ft 507 kts 57°
2026-04-25 15:25 11.74288 -65.30414 36973 ft 507 kts 56°
2026-04-25 15:25 11.79032 -65.23589 36972 ft 507 kts 56°
2026-04-25 15:26 11.83093 -65.17721 36971 ft 505 kts 56°
2026-04-25 15:26 11.86459 -65.12857 36969 ft 502 kts 56°
2026-04-25 15:27 11.90474 -65.07030 36963 ft 502 kts 56°
2026-04-25 15:28 11.97160 -64.97323 36971 ft 503 kts 56°
2026-04-25 15:28 12.00507 -64.92470 36974 ft 503 kts 56°
2026-04-25 15:29 12.04533 -64.86623 36965 ft 504 kts 56°
2026-04-25 15:29 12.08566 -64.80764 36976 ft 505 kts 56°
2026-04-25 15:30 12.12612 -64.74883 36975 ft 507 kts 56°
2026-04-25 15:30 12.16667 -64.68985 36972 ft 508 kts 56°
2026-04-25 15:31 12.20701 -64.63114 36975 ft 509 kts 57°
2026-04-25 15:31 12.24768 -64.57189 36982 ft 509 kts 56°
2026-04-25 15:32 12.28831 -64.51267 36981 ft 508 kts 56°
2026-04-25 15:32 12.32888 -64.45353 36981 ft 507 kts 56°
2026-04-25 15:33 12.38907 -64.36535 36980 ft 506 kts 57°
2026-04-25 15:33 12.42895 -64.30616 36985 ft 505 kts 57°
2026-04-25 15:34 12.46879 -64.24697 36980 ft 505 kts 57°
2026-04-25 15:34 12.50192 -64.19781 36987 ft 505 kts 57°
2026-04-25 15:35 12.56811 -64.09956 36991 ft 504 kts 57°
2026-04-25 15:36 12.62786 -64.01082 36991 ft 505 kts 57°
2026-04-25 15:36 12.66776 -63.95150 36992 ft 506 kts 57°
2026-04-25 15:37 12.70767 -63.89207 36990 ft 506 kts 57°
2026-04-25 15:37 12.74730 -63.83309 36990 ft 506 kts 57°
2026-04-25 15:38 12.78724 -63.77358 36992 ft 507 kts 57°
2026-04-25 15:38 12.82723 -63.71410 36989 ft 507 kts 57°
2026-04-25 15:39 12.86745 -63.65467 36988 ft 508 kts 55°
2026-04-25 15:39 12.91174 -63.59827 36993 ft 508 kts 51°
2026-04-25 15:40 12.94935 -63.55199 36991 ft 509 kts 51°
2026-04-25 15:40 13.00222 -63.48669 36991 ft 509 kts 51°
2026-04-25 15:41 13.04698 -63.43099 36991 ft 510 kts 52°
2026-04-25 15:41 13.09203 -63.37479 36992 ft 510 kts 52°
2026-04-25 15:42 13.13709 -63.31849 36991 ft 511 kts 52°
2026-04-25 15:42 13.18219 -63.26212 36991 ft 511 kts 52°
2026-04-25 15:43 13.22732 -63.20572 36991 ft 511 kts 52°
2026-04-25 15:43 13.27212 -63.14970 36990 ft 511 kts 52°
2026-04-25 15:44 13.31721 -63.09326 36991 ft 511 kts 52°
2026-04-25 15:44 13.36226 -63.03686 36991 ft 511 kts 52°
2026-04-25 15:45 13.40729 -62.98043 36991 ft 511 kts 52°
2026-04-25 15:45 13.44470 -62.93355 36990 ft 510 kts 52°
2026-04-25 15:46 13.49690 -62.86803 36993 ft 510 kts 52°
2026-04-25 15:46 13.54183 -62.81162 36990 ft 510 kts 52°
2026-04-25 15:47 13.58676 -62.75517 36991 ft 510 kts 52°
2026-04-25 15:47 13.63170 -62.69867 36992 ft 510 kts 51°
2026-04-25 15:48 13.67632 -62.64255 36991 ft 510 kts 52°
2026-04-25 15:48 13.72119 -62.58606 36990 ft 510 kts 52°
2026-04-25 15:49 13.76603 -62.52957 36990 ft 510 kts 51°
2026-04-25 15:49 13.81088 -62.47306 36991 ft 510 kts 51°
2026-04-25 15:50 13.85568 -62.41652 36990 ft 509 kts 51°
2026-04-25 15:50 13.90014 -62.36036 36991 ft 509 kts 51°
2026-04-25 15:51 13.93734 -62.31337 36992 ft 509 kts 51°
2026-04-25 15:51 13.98970 -62.24723 36990 ft 510 kts 51°
2026-04-25 15:52 14.03449 -62.19059 36992 ft 510 kts 51°
2026-04-25 15:52 14.07895 -62.13433 36991 ft 510 kts 51°
2026-04-25 15:53 14.12375 -62.07755 36992 ft 511 kts 51°
2026-04-25 15:53 14.16856 -62.02074 36990 ft 510 kts 51°
2026-04-25 15:54 14.21334 -61.96397 36992 ft 511 kts 52°
2026-04-25 15:54 14.25811 -61.90710 36992 ft 511 kts 52°
2026-04-25 15:55 14.30260 -61.85060 36989 ft 511 kts 51°
2026-04-25 15:55 14.34738 -61.79372 36992 ft 511 kts 52°
2026-04-25 15:56 14.39214 -61.73677 36984 ft 511 kts 51°
2026-04-25 15:56 14.43684 -61.67991 36989 ft 511 kts 51°
2026-04-25 15:57 14.48158 -61.62293 36985 ft 512 kts 52°
2026-04-25 15:57 14.52615 -61.56609 36982 ft 512 kts 51°
2026-04-25 15:58 14.57101 -61.50888 36979 ft 513 kts 52°
2026-04-25 15:58 14.61591 -61.45156 36984 ft 514 kts 52°
2026-04-25 15:59 14.66083 -61.39418 36982 ft 514 kts 51°
2026-04-25 15:59 14.70582 -61.33668 36987 ft 514 kts 51°
2026-04-25 16:00 14.73556 -61.29863 36991 ft 514 kts 51°
2026-04-25 16:00 14.79542 -61.22199 36982 ft 515 kts 52°
2026-04-25 16:01 14.84046 -61.16428 36977 ft 516 kts 51°
2026-04-25 16:01 14.88555 -61.10648 36967 ft 516 kts 51°
2026-04-25 16:02 14.93032 -61.04908 36973 ft 516 kts 51°
2026-04-25 16:02 14.97537 -60.99126 36972 ft 516 kts 52°
2026-04-25 16:03 15.02040 -60.93347 36972 ft 516 kts 52°
2026-04-25 16:03 15.06538 -60.87567 36970 ft 516 kts 52°
2026-04-25 16:04 15.11031 -60.81789 36973 ft 515 kts 52°
2026-04-25 16:04 15.15492 -60.76043 36973 ft 516 kts 52°
2026-04-25 16:05 15.19986 -60.70253 36988 ft 516 kts 52°
2026-04-25 16:06 15.26723 -60.61565 37020 ft 516 kts 52°
2026-04-25 16:06 15.31223 -60.55759 37017 ft 517 kts 52°
2026-04-25 16:07 15.35730 -60.49938 37007 ft 518 kts 52°
2026-04-25 16:07 15.40212 -60.44144 37001 ft 519 kts 52°
2026-04-25 16:08 15.44724 -60.38307 37000 ft 519 kts 52°
2026-04-25 16:08 15.49244 -60.32455 36992 ft 520 kts 52°
2026-04-25 16:09 15.53756 -60.26608 36989 ft 519 kts 52°
2026-04-25 16:09 15.58238 -60.20797 36991 ft 519 kts 52°
2026-04-25 16:10 15.62748 -60.14947 37006 ft 519 kts 52°
2026-04-25 16:10 15.67252 -60.09096 37010 ft 519 kts 52°
2026-04-25 16:11 15.71756 -60.03241 37009 ft 519 kts 52°
2026-04-25 16:11 15.76260 -59.97382 37010 ft 519 kts 52°
2026-04-25 16:12 15.80737 -59.91556 37008 ft 520 kts 52°
2026-04-25 16:12 15.85243 -59.85682 37004 ft 520 kts 52°
2026-04-25 16:13 15.89754 -59.79799 37000 ft 521 kts 52°
2026-04-25 16:13 15.94265 -59.73914 37001 ft 521 kts 52°
2026-04-25 16:14 15.98772 -59.68030 36999 ft 520 kts 52°
2026-04-25 16:14 16.03243 -59.62184 36999 ft 520 kts 52°
2026-04-25 16:15 16.07743 -59.56296 37001 ft 520 kts 52°
2026-04-25 16:15 16.12239 -59.50411 37001 ft 520 kts 52°
2026-04-25 16:16 16.16735 -59.44520 37002 ft 520 kts 52°
2026-04-25 16:16 16.21231 -59.38628 37009 ft 520 kts 52°
2026-04-25 16:17 16.25727 -59.32729 37009 ft 521 kts 51°
2026-04-25 16:17 16.30196 -59.26855 37010 ft 521 kts 52°
2026-04-25 16:18 16.34694 -59.20937 37010 ft 521 kts 51°
2026-04-25 16:18 16.39194 -59.15018 37009 ft 521 kts 51°
2026-04-25 16:19 16.43692 -59.09097 37010 ft 521 kts 51°
2026-04-25 16:19 16.48190 -59.03169 37010 ft 522 kts 51°
2026-04-25 16:20 16.54905 -58.94306 37009 ft 522 kts 51°
2026-04-25 16:21 16.61644 -58.85402 37009 ft 521 kts 51°
2026-04-25 16:21 16.66131 -58.79467 37009 ft 521 kts 51°
2026-04-25 16:22 16.70588 -58.73568 37003 ft 521 kts 51°
2026-04-25 16:22 16.75070 -58.67627 37000 ft 521 kts 51°
2026-04-25 16:23 16.79553 -58.61684 37000 ft 521 kts 51°
2026-04-25 16:23 16.84039 -58.55735 37000 ft 521 kts 51°
2026-04-25 16:24 16.88514 -58.49787 36993 ft 521 kts 51°
2026-04-25 16:24 16.92963 -58.43878 36990 ft 521 kts 51°
2026-04-25 16:25 16.97412 -58.37956 36992 ft 521 kts 51°
2026-04-25 16:25 17.01886 -58.31996 36989 ft 522 kts 51°
2026-04-25 16:26 17.06365 -58.26028 36992 ft 522 kts 51°
2026-04-25 16:26 17.10847 -58.20050 36989 ft 522 kts 51°
2026-04-25 16:27 17.15328 -58.14068 36991 ft 523 kts 51°
2026-04-25 16:27 17.19783 -58.08114 36990 ft 524 kts 51°
2026-04-25 16:28 17.24273 -58.02106 36992 ft 524 kts 51°
2026-04-25 16:28 17.28767 -57.96092 36992 ft 525 kts 51°
2026-04-25 16:29 17.33263 -57.90069 36992 ft 525 kts 51°
2026-04-25 16:29 17.37733 -57.84075 36991 ft 526 kts 51°
2026-04-25 16:30 17.42227 -57.78041 36991 ft 526 kts 51°
2026-04-25 16:30 17.46725 -57.72000 36990 ft 526 kts 51°
2026-04-25 16:31 17.51222 -57.65953 36992 ft 526 kts 51°
2026-04-25 16:31 17.55687 -57.59943 36989 ft 526 kts 51°
2026-04-25 16:32 17.60179 -57.53890 36991 ft 526 kts 51°
2026-04-25 16:32 17.64667 -57.47835 36991 ft 526 kts 51°
2026-04-25 16:33 17.69161 -57.41776 36990 ft 526 kts 51°
2026-04-25 16:33 17.73648 -57.35718 36991 ft 526 kts 51°
2026-04-25 16:34 17.78102 -57.29694 36993 ft 526 kts 51°
2026-04-25 16:34 17.82582 -57.23630 36989 ft 526 kts 51°
2026-04-25 16:35 17.87059 -57.17567 36991 ft 525 kts 51°
2026-04-25 16:35 17.91531 -57.11504 36990 ft 525 kts 51°
2026-04-25 16:36 17.95965 -57.05482 36991 ft 525 kts 51°
2026-04-25 16:36 18.00246 -56.99280 36989 ft 525 kts 58°
2026-04-25 16:37 18.03559 -56.92458 36979 ft 525 kts 65°
2026-04-25 16:37 18.06650 -56.85485 36985 ft 527 kts 65°
2026-04-25 16:38 18.09757 -56.78547 36984 ft 529 kts 65°
2026-04-25 16:38 18.12922 -56.71549 36969 ft 531 kts 64°
2026-04-25 16:39 18.16104 -56.64530 36965 ft 532 kts 64°
2026-04-25 16:39 18.19289 -56.57505 36961 ft 532 kts 64°
2026-04-25 16:40 18.22460 -56.50493 36973 ft 530 kts 64°
2026-04-25 16:40 18.25601 -56.43535 36972 ft 529 kts 64°
2026-04-25 16:41 18.28754 -56.36545 36970 ft 528 kts 64°
2026-04-25 16:41 18.33466 -56.26079 36975 ft 527 kts 64°
2026-04-25 16:42 18.36596 -56.19118 36983 ft 526 kts 65°
2026-04-25 16:42 18.39701 -56.12208 36979 ft 526 kts 64°
2026-04-25 16:43 18.42824 -56.05246 36981 ft 526 kts 65°
2026-04-25 16:43 18.45946 -55.98277 36982 ft 527 kts 65°
2026-04-25 16:44 18.49072 -55.91293 36984 ft 527 kts 64°
2026-04-25 16:44 18.52197 -55.84298 36984 ft 528 kts 65°
2026-04-25 16:45 18.55307 -55.77334 36979 ft 529 kts 65°
2026-04-25 16:45 18.58435 -55.70320 36980 ft 529 kts 65°
2026-04-25 16:46 18.61563 -55.63297 36978 ft 529 kts 65°
2026-04-25 16:46 18.63635 -55.58644 36988 ft 530 kts 65°
2026-04-25 16:47 18.67795 -55.49280 36975 ft 530 kts 65°
2026-04-25 16:47 18.70919 -55.42239 36974 ft 530 kts 65°
2026-04-25 16:48 18.74041 -55.35200 36974 ft 530 kts 65°
2026-04-25 16:48 18.77156 -55.28160 36971 ft 529 kts 65°
2026-04-25 16:49 18.80270 -55.21119 36973 ft 529 kts 65°
2026-04-25 16:49 18.83361 -55.14121 36972 ft 530 kts 65°
2026-04-25 16:50 18.86474 -55.07070 36966 ft 530 kts 65°
2026-04-25 16:50 18.89580 -55.00012 36960 ft 530 kts 65°
2026-04-25 16:51 18.92691 -54.92943 36962 ft 531 kts 65°
2026-04-25 16:51 18.94750 -54.88255 36953 ft 531 kts 65°
2026-04-25 16:52 18.98891 -54.78825 36954 ft 531 kts 65°
2026-04-25 16:52 19.01995 -54.71747 36953 ft 531 kts 65°
2026-04-25 16:53 19.06646 -54.61121 36954 ft 531 kts 65°
2026-04-25 16:54 19.09743 -54.54038 36952 ft 531 kts 65°
2026-04-25 16:54 19.12838 -54.46947 36942 ft 531 kts 65°
2026-04-25 16:55 19.15908 -54.39902 36946 ft 531 kts 65°
2026-04-25 16:55 19.18998 -54.32800 36944 ft 531 kts 65°
2026-04-25 16:56 19.22088 -54.25701 36945 ft 532 kts 65°
2026-04-25 16:56 19.25158 -54.18635 36944 ft 532 kts 65°
2026-04-25 16:57 19.28248 -54.11512 36945 ft 533 kts 65°
2026-04-25 16:57 19.31336 -54.04382 36945 ft 533 kts 65°
2026-04-25 16:58 19.34425 -53.97242 36946 ft 533 kts 65°
2026-04-25 16:58 19.37510 -53.90101 36945 ft 533 kts 65°
2026-04-25 16:59 19.40574 -53.83001 36943 ft 534 kts 65°
2026-04-25 16:59 19.43654 -53.75851 36945 ft 533 kts 65°
2026-04-25 17:00 19.46734 -53.68700 36943 ft 534 kts 65°
2026-04-25 17:00 19.49812 -53.61544 36942 ft 533 kts 65°
2026-04-25 17:01 19.52884 -53.54388 36934 ft 534 kts 65°
2026-04-25 17:01 19.55934 -53.47274 36935 ft 534 kts 65°
2026-04-25 17:02 19.59002 -53.40110 36936 ft 534 kts 65°
2026-04-25 17:02 19.62066 -53.32942 36934 ft 534 kts 65°
2026-04-25 17:03 19.65129 -53.25770 36935 ft 533 kts 65°
2026-04-25 17:03 19.68169 -53.18650 36935 ft 533 kts 65°
2026-04-25 17:04 19.71224 -53.11480 36938 ft 533 kts 65°
2026-04-25 17:04 19.74270 -53.04315 36934 ft 532 kts 65°
2026-04-25 17:05 19.77311 -52.97151 36934 ft 532 kts 65°
2026-04-25 17:05 19.81868 -52.86413 36937 ft 532 kts 65°
2026-04-25 17:06 19.84889 -52.79286 36935 ft 533 kts 65°
2026-04-25 17:06 19.87926 -52.72101 36931 ft 533 kts 65°
2026-04-25 17:07 19.90961 -52.64913 36946 ft 533 kts 65°
2026-04-25 17:07 19.93987 -52.57738 36969 ft 532 kts 65°
2026-04-25 17:08 19.97014 -52.50553 36974 ft 533 kts 65°
2026-04-25 17:08 20.00041 -52.43358 36970 ft 533 kts 65°
2026-04-25 17:09 20.03047 -52.36203 36972 ft 534 kts 65°
2026-04-25 17:09 20.06074 -52.28990 36972 ft 534 kts 65°
2026-04-25 17:10 20.09103 -52.21762 36988 ft 535 kts 65°
2026-04-25 17:10 20.12130 -52.14527 36984 ft 535 kts 65°
2026-04-25 17:11 20.15135 -52.07333 36990 ft 535 kts 65°
2026-04-25 17:11 20.18154 -52.00095 36991 ft 535 kts 65°
2026-04-25 17:12 20.21170 -51.92859 36991 ft 534 kts 65°
2026-04-25 17:12 20.24180 -51.85626 36991 ft 534 kts 65°
2026-04-25 17:13 20.26170 -51.80833 36990 ft 534 kts 65°
2026-04-25 17:13 20.30166 -51.71208 36996 ft 534 kts 65°
2026-04-25 17:14 20.33167 -51.63968 37002 ft 534 kts 65°
2026-04-25 17:14 20.36166 -51.56719 37001 ft 535 kts 65°
2026-04-25 17:15 20.39166 -51.49462 37000 ft 535 kts 65°
2026-04-25 17:15 20.42147 -51.42249 37001 ft 536 kts 65°
2026-04-25 17:16 20.45145 -51.34970 37001 ft 536 kts 65°
2026-04-25 17:16 20.48139 -51.27688 37000 ft 536 kts 65°
2026-04-25 17:17 20.51134 -51.20396 36998 ft 537 kts 65°
2026-04-25 17:17 20.54128 -51.13101 37001 ft 537 kts 65°
2026-04-25 17:18 20.57102 -51.05844 37003 ft 538 kts 65°
2026-04-25 17:18 20.60096 -50.98531 37001 ft 538 kts 65°
2026-04-25 17:19 20.63086 -50.91218 36997 ft 537 kts 65°
2026-04-25 17:19 20.66072 -50.83902 37001 ft 537 kts 65°
2026-04-25 17:20 20.69049 -50.76593 37002 ft 536 kts 65°
2026-04-25 17:20 20.72004 -50.69327 36976 ft 537 kts 65°
2026-04-25 17:21 20.74979 -50.62008 36972 ft 537 kts 65°
2026-04-25 17:21 20.77950 -50.54684 36970 ft 537 kts 65°
2026-04-25 17:22 20.79916 -50.49838 36973 ft 537 kts 65°
2026-04-25 17:22 20.83862 -50.40082 36974 ft 537 kts 65°
2026-04-25 17:23 20.86822 -50.32754 36966 ft 537 kts 65°
2026-04-25 17:23 20.89783 -50.25414 36970 ft 537 kts 65°
2026-04-25 17:24 20.92740 -50.18076 36974 ft 537 kts 65°
2026-04-25 17:24 20.95690 -50.10739 36971 ft 537 kts 65°
2026-04-25 17:25 20.98619 -50.03448 36972 ft 537 kts 65°
2026-04-25 17:25 21.01088 -49.95899 36965 ft 538 kts 75°
2026-04-25 17:26 21.02857 -49.88116 36975 ft 539 kts 76°
2026-04-25 17:26 21.04597 -49.80314 36972 ft 539 kts 76°
2026-04-25 17:27 21.06378 -49.72509 36973 ft 540 kts 75°
2026-04-25 17:27 21.07569 -49.67343 36975 ft 540 kts 75°
2026-04-25 17:28 21.09973 -49.56952 36974 ft 540 kts 75°
2026-04-25 17:28 21.11770 -49.49149 36971 ft 540 kts 75°
2026-04-25 17:29 21.13562 -49.41336 36972 ft 540 kts 75°
2026-04-25 17:29 21.15352 -49.33521 36976 ft 540 kts 75°
2026-04-25 17:30 21.17124 -49.25763 36981 ft 540 kts 75°
2026-04-25 17:30 21.18905 -49.17950 36982 ft 540 kts 75°
2026-04-25 17:31 21.20683 -49.10134 36980 ft 540 kts 75°
2026-04-25 17:31 21.22457 -49.02318 36984 ft 540 kts 75°
2026-04-25 17:32 21.24217 -48.94551 36981 ft 540 kts 75°
2026-04-25 17:32 21.25983 -48.86728 36982 ft 540 kts 75°
2026-04-25 17:33 21.27747 -48.78902 36982 ft 540 kts 75°
2026-04-25 17:33 21.29211 -48.72393 36982 ft 540 kts 75°
2026-04-25 17:34 21.30969 -48.64564 36981 ft 540 kts 75°
2026-04-25 17:34 21.32723 -48.56733 36982 ft 540 kts 75°
2026-04-25 17:35 21.34473 -48.48898 36978 ft 540 kts 75°
2026-04-25 17:35 21.36219 -48.41058 36981 ft 540 kts 75°
2026-04-25 17:36 21.37952 -48.33269 36979 ft 541 kts 75°
2026-04-25 17:36 21.39692 -48.25419 36982 ft 541 kts 75°
2026-04-25 17:37 21.41432 -48.17556 36982 ft 542 kts 75°
2026-04-25 17:37 21.43172 -48.09682 36984 ft 542 kts 75°
2026-04-25 17:38 21.44615 -48.03132 36983 ft 543 kts 75°
2026-04-25 17:38 21.46631 -47.93971 36984 ft 543 kts 75°
2026-04-25 17:39 21.48362 -47.86082 36982 ft 543 kts 75°
2026-04-25 17:39 21.50088 -47.78191 36983 ft 543 kts 75°
2026-04-25 17:40 21.51808 -47.70304 36983 ft 543 kts 75°
2026-04-25 17:40 21.53514 -47.62464 36984 ft 543 kts 75°
2026-04-25 17:41 21.55227 -47.54574 36978 ft 542 kts 75°
2026-04-25 17:41 21.56939 -47.46683 36985 ft 542 kts 75°
2026-04-25 17:42 21.58641 -47.38801 36976 ft 541 kts 75°
2026-04-25 17:42 21.60339 -47.30925 36983 ft 541 kts 75°
2026-04-25 17:43 21.62022 -47.23104 36992 ft 541 kts 75°
2026-04-25 17:43 21.63712 -47.15232 36990 ft 541 kts 75°
2026-04-25 17:44 21.65398 -47.07356 36992 ft 541 kts 75°
2026-04-25 17:44 21.67080 -46.99477 36991 ft 541 kts 75°
2026-04-25 17:45 21.68477 -46.92927 36992 ft 541 kts 75°
2026-04-25 17:45 21.70423 -46.83768 36991 ft 541 kts 75°
2026-04-25 17:46 21.72093 -46.75884 36991 ft 541 kts 75°
2026-04-25 17:46 21.73759 -46.68001 36992 ft 540 kts 75°
2026-04-25 17:47 21.75424 -46.60115 36991 ft 541 kts 75°
2026-04-25 17:47 21.77071 -46.52283 36990 ft 541 kts 75°
2026-04-25 17:48 21.79557 -46.40442 36992 ft 541 kts 75°
2026-04-25 17:49 21.81210 -46.32548 36991 ft 541 kts 75°
2026-04-25 17:49 21.82855 -46.24646 36990 ft 541 kts 75°
2026-04-25 17:50 21.84487 -46.16794 36991 ft 541 kts 75°
2026-04-25 17:50 21.86130 -46.08881 36991 ft 542 kts 75°
2026-04-25 17:51 21.87768 -46.00966 36990 ft 542 kts 75°
2026-04-25 17:51 21.89403 -45.93050 36991 ft 542 kts 75°
2026-04-25 17:52 21.91035 -45.85128 36990 ft 542 kts 75°
2026-04-25 17:52 21.92652 -45.77261 36992 ft 542 kts 75°
2026-04-25 17:53 21.94277 -45.69335 36991 ft 542 kts 75°
2026-04-25 17:53 21.95895 -45.61412 36991 ft 541 kts 75°
2026-04-25 17:54 21.97510 -45.53491 36991 ft 541 kts 75°
2026-04-25 17:54 21.99110 -45.45627 36990 ft 541 kts 75°
2026-04-25 17:55 22.00714 -45.37715 36989 ft 541 kts 75°
2026-04-25 17:55 22.02316 -45.29795 36990 ft 540 kts 75°
2026-04-25 17:56 22.03914 -45.21874 36992 ft 542 kts 75°
2026-04-25 17:56 22.05503 -45.13983 36992 ft 543 kts 75°
2026-04-25 17:57 22.07101 -45.06019 36993 ft 544 kts 75°
2026-04-25 17:57 22.08699 -44.98040 36992 ft 545 kts 75°
2026-04-25 17:58 22.10291 -44.90061 36988 ft 544 kts 75°
2026-04-25 17:58 22.11881 -44.82077 36992 ft 544 kts 75°
2026-04-25 17:59 22.13456 -44.74147 36991 ft 544 kts 75°
2026-04-25 17:59 22.15038 -44.66161 36991 ft 544 kts 75°
2026-04-25 18:00 22.16613 -44.58180 36990 ft 544 kts 75°
2026-04-25 18:00 22.18183 -44.50208 36990 ft 543 kts 75°
2026-04-25 18:01 22.19739 -44.42294 36990 ft 543 kts 75°
2026-04-25 18:01 22.21299 -44.34332 36991 ft 542 kts 75°
2026-04-25 18:02 22.22854 -44.26373 36993 ft 542 kts 75°
2026-04-25 18:02 22.24405 -44.18416 36991 ft 542 kts 75°
2026-04-25 18:03 22.25957 -44.10453 36990 ft 542 kts 75°
2026-04-25 18:03 22.27488 -44.02548 36991 ft 542 kts 75°
2026-04-25 18:04 22.29023 -43.94587 36992 ft 541 kts 75°
2026-04-25 18:04 22.30558 -43.86626 36990 ft 542 kts 76°
2026-04-25 18:05 22.32090 -43.78659 36991 ft 542 kts 76°
2026-04-25 18:05 22.33607 -43.70742 36991 ft 542 kts 75°
2026-04-25 18:06 22.35131 -43.62765 36990 ft 543 kts 75°
2026-04-25 18:06 22.36655 -43.54783 36991 ft 543 kts 75°
2026-04-25 18:07 22.38176 -43.46791 36990 ft 543 kts 75°
2026-04-25 18:07 22.39682 -43.38845 36991 ft 543 kts 75°
2026-04-25 18:08 22.41193 -43.30846 36992 ft 544 kts 75°
2026-04-25 18:08 22.42704 -43.22839 36991 ft 544 kts 75°
2026-04-25 18:09 22.44210 -43.14824 36992 ft 544 kts 75°
2026-04-25 18:09 22.45713 -43.06803 36991 ft 545 kts 75°
2026-04-25 18:10 22.47214 -42.98781 36990 ft 545 kts 75°
2026-04-25 18:10 22.48700 -42.90807 36992 ft 544 kts 75°
2026-04-25 18:11 22.50190 -42.82784 36989 ft 544 kts 75°
2026-04-25 18:11 22.51676 -42.74766 36991 ft 543 kts 75°
2026-04-25 18:12 22.53156 -42.66757 36990 ft 543 kts 75°
2026-04-25 18:12 22.54622 -42.58802 36990 ft 543 kts 76°
2026-04-25 18:13 22.56093 -42.50794 36992 ft 543 kts 76°
2026-04-25 18:13 22.57562 -42.42781 36990 ft 543 kts 76°
2026-04-25 18:14 22.59755 -42.30761 36992 ft 543 kts 76°
2026-04-25 18:14 22.61202 -42.22794 36992 ft 543 kts 76°
2026-04-25 18:15 22.62657 -42.14771 36991 ft 544 kts 76°
2026-04-25 18:15 22.64110 -42.06739 36990 ft 544 kts 76°
2026-04-25 18:16 22.65551 -41.98748 36990 ft 544 kts 76°
2026-04-25 18:17 22.67714 -41.86701 36991 ft 543 kts 76°
2026-04-25 18:17 22.69151 -41.78668 36989 ft 543 kts 76°
2026-04-25 18:18 22.70584 -41.70634 36992 ft 543 kts 76°
2026-04-25 18:18 22.72002 -41.62652 36990 ft 544 kts 76°
2026-04-25 18:19 22.73427 -41.54611 36990 ft 544 kts 75°
2026-04-25 18:19 22.74850 -41.46569 36990 ft 543 kts 75°
2026-04-25 18:20 22.76269 -41.38528 36992 ft 544 kts 75°
2026-04-25 18:20 22.77674 -41.30534 36990 ft 544 kts 76°
2026-04-25 18:21 22.79084 -41.22476 36993 ft 544 kts 75°
2026-04-25 18:21 22.80491 -41.14417 36990 ft 544 kts 75°
2026-04-25 18:22 22.81894 -41.06354 36992 ft 544 kts 75°
2026-04-25 18:22 22.83284 -40.98343 36988 ft 545 kts 75°
2026-04-25 18:23 22.84679 -40.90272 36993 ft 545 kts 75°
2026-04-25 18:23 22.86073 -40.82200 36990 ft 545 kts 75°
2026-04-25 18:24 22.87461 -40.74126 36991 ft 545 kts 75°
2026-04-25 18:24 22.88847 -40.66051 36990 ft 545 kts 75°
2026-04-25 18:25 22.90217 -40.58024 36991 ft 545 kts 76°
2026-04-25 18:25 22.91592 -40.49942 36991 ft 545 kts 76°
2026-04-25 18:26 22.92962 -40.41863 36990 ft 545 kts 76°
2026-04-25 18:26 22.94322 -40.33839 36990 ft 545 kts 76°
2026-04-25 18:27 22.95685 -40.25756 36992 ft 545 kts 76°
2026-04-25 18:27 22.97045 -40.17669 36992 ft 545 kts 76°
2026-04-25 18:28 22.98402 -40.09577 36990 ft 545 kts 76°
2026-04-25 18:28 22.99272 -40.01385 36982 ft 551 kts 88°
2026-04-25 18:29 22.98516 -39.93096 36986 ft 555 kts 102°
2026-04-25 18:29 22.97571 -39.89044 36995 ft 554 kts 104°
2026-04-25 18:30 22.93583 -39.72937 36990 ft 555 kts 104°
2026-04-25 18:30 22.91638 -39.64832 36989 ft 555 kts 104°
2026-04-25 18:31 22.89711 -39.56724 36981 ft 555 kts 104°
2026-04-25 18:31 22.87778 -39.48616 36985 ft 555 kts 104°
2026-04-25 18:32 22.85851 -39.40569 36986 ft 555 kts 104°
2026-04-25 18:32 22.83905 -39.32476 36981 ft 555 kts 104°
2026-04-25 18:33 22.81955 -39.24385 36984 ft 554 kts 104°
2026-04-25 18:33 22.80003 -39.16303 36976 ft 554 kts 104°
2026-04-25 18:34 22.78061 -39.08277 36987 ft 554 kts 104°
2026-04-25 18:34 22.76101 -39.00200 36980 ft 555 kts 104°
2026-04-25 18:35 22.74135 -38.92115 36982 ft 555 kts 104°
2026-04-25 18:35 22.72165 -38.84034 36978 ft 555 kts 104°
2026-04-25 18:36 22.70191 -38.75950 36979 ft 555 kts 104°
2026-04-25 18:36 22.68226 -38.67923 36982 ft 555 kts 104°
2026-04-25 18:37 22.66242 -38.59843 36978 ft 555 kts 104°
2026-04-25 18:37 22.64253 -38.51761 36982 ft 555 kts 104°
2026-04-25 18:38 22.62273 -38.43736 36983 ft 556 kts 105°
2026-04-25 18:38 22.60279 -38.35661 36986 ft 556 kts 104°
2026-04-25 18:39 22.58279 -38.27584 36983 ft 556 kts 105°
2026-04-25 18:39 22.56275 -38.19516 36980 ft 556 kts 105°
2026-04-25 18:40 22.54266 -38.11445 36982 ft 555 kts 105°
2026-04-25 18:40 22.52268 -38.03435 36982 ft 555 kts 105°
2026-04-25 18:41 22.50254 -37.95379 36979 ft 555 kts 105°
2026-04-25 18:41 22.48238 -37.87330 36979 ft 555 kts 105°
2026-04-25 18:42 22.46558 -37.80642 36982 ft 555 kts 105°
2026-04-25 18:42 22.44202 -37.71291 36982 ft 555 kts 105°
2026-04-25 18:43 22.42171 -37.63241 36982 ft 555 kts 105°
2026-04-25 18:43 22.40136 -37.55188 36983 ft 556 kts 105°
2026-04-25 18:44 22.38096 -37.47134 36979 ft 556 kts 105°
2026-04-25 18:44 22.36048 -37.39079 36986 ft 556 kts 105°
2026-04-25 18:45 22.34010 -37.31074 36980 ft 556 kts 105°
2026-04-25 18:45 22.31954 -37.23016 36979 ft 557 kts 105°
2026-04-25 18:46 22.29892 -37.14953 36981 ft 557 kts 105°
2026-04-25 18:46 22.27825 -37.06890 36982 ft 557 kts 105°
2026-04-25 18:47 22.25767 -36.98877 36979 ft 558 kts 105°
2026-04-25 18:47 22.23690 -36.90806 36980 ft 558 kts 105°
2026-04-25 18:48 22.21608 -36.82737 36983 ft 558 kts 105°
2026-04-25 18:48 22.19520 -36.74666 36986 ft 558 kts 105°
2026-04-25 18:49 22.17446 -36.66654 36980 ft 558 kts 105°
2026-04-25 18:49 22.15353 -36.58592 36980 ft 558 kts 105°
2026-04-25 18:50 22.13254 -36.50526 36979 ft 558 kts 105°
2026-04-25 18:50 22.11149 -36.42465 36982 ft 558 kts 105°
2026-04-25 18:51 22.09398 -36.35769 36984 ft 558 kts 105°
2026-04-25 18:51 22.06949 -36.26414 36981 ft 558 kts 105°
2026-04-25 18:52 22.04838 -36.18373 36982 ft 557 kts 105°
2026-04-25 18:52 22.02725 -36.10343 36980 ft 557 kts 105°
2026-04-25 18:53 22.00610 -36.02311 36970 ft 557 kts 105°
2026-04-25 18:53 21.98143 -35.94414 36981 ft 556 kts 111°
2026-04-25 18:54 21.93983 -35.82807 36972 ft 556 kts 111°
2026-04-25 18:55 21.91207 -35.75028 36972 ft 557 kts 111°
2026-04-25 18:55 21.88450 -35.67236 36977 ft 556 kts 111°
2026-04-25 18:56 21.85701 -35.59447 36971 ft 556 kts 111°
2026-04-25 18:56 21.82965 -35.51715 36965 ft 556 kts 111°
2026-04-25 18:57 21.80205 -35.43933 36929 ft 557 kts 111°
2026-04-25 18:57 21.77441 -35.36158 36931 ft 556 kts 111°
2026-04-25 18:58 21.74678 -35.28399 36932 ft 555 kts 111°
2026-04-25 18:58 21.70527 -35.16768 36931 ft 555 kts 111°
2026-04-25 18:59 21.64997 -35.01318 36928 ft 556 kts 111°
2026-04-25 19:00 21.60825 -34.89690 36891 ft 556 kts 111°
2026-04-25 19:01 21.56659 -34.78112 36881 ft 556 kts 111°
2026-04-25 19:01 21.53861 -34.70355 36881 ft 557 kts 111°
2026-04-25 19:02 21.49658 -34.58724 36882 ft 557 kts 111°
2026-04-25 19:03 21.46396 -34.49717 36886 ft 557 kts 112°
2026-04-25 19:03 21.42653 -34.39402 36888 ft 557 kts 112°
2026-04-25 19:04 21.38425 -34.27774 36910 ft 557 kts 112°
2026-04-25 19:05 21.32787 -34.12323 36932 ft 558 kts 112°
2026-04-25 19:06 21.29952 -34.04570 36909 ft 558 kts 112°
2026-04-25 19:06 21.25694 -33.92943 36909 ft 558 kts 112°
2026-04-25 19:07 21.21445 -33.81380 36927 ft 558 kts 112°
2026-04-25 19:08 21.17172 -33.69774 36915 ft 558 kts 112°
2026-04-25 19:09 21.11948 -33.55629 36919 ft 558 kts 112°
2026-04-25 19:10 21.07202 -33.42801 36933 ft 557 kts 112°
2026-04-25 19:10 21.04343 -33.35099 36931 ft 557 kts 112°
2026-04-25 19:11 21.01482 -33.27404 36935 ft 556 kts 112°
2026-04-25 19:11 20.98621 -33.19719 36936 ft 556 kts 112°
2026-04-25 19:12 20.95777 -33.12093 36935 ft 556 kts 112°
2026-04-25 19:12 20.92911 -33.04416 36936 ft 555 kts 112°
2026-04-25 19:13 20.90043 -32.96746 36935 ft 555 kts 112°
2026-04-25 19:13 20.87172 -32.89080 36936 ft 555 kts 112°
2026-04-25 19:14 20.84317 -32.81470 36934 ft 555 kts 112°
2026-04-25 19:14 20.81441 -32.73813 36936 ft 555 kts 112°
2026-04-25 19:15 20.78559 -32.66158 36935 ft 555 kts 112°
2026-04-25 19:15 20.75675 -32.58503 36936 ft 555 kts 112°
2026-04-25 19:16 20.72803 -32.50898 36937 ft 556 kts 112°
2026-04-25 19:16 20.69908 -32.43244 36936 ft 556 kts 112°
2026-04-25 19:17 20.67011 -32.35595 36935 ft 555 kts 112°
2026-04-25 19:17 20.64118 -32.27962 36934 ft 554 kts 112°
2026-04-25 19:18 20.61240 -32.20385 36937 ft 554 kts 112°
2026-04-25 19:18 20.58345 -32.12773 36935 ft 553 kts 112°
2026-04-25 19:19 20.55449 -32.05174 36937 ft 553 kts 112°
2026-04-25 19:19 20.52552 -31.97581 36934 ft 552 kts 112°
2026-04-25 19:20 20.49674 -31.90050 36935 ft 552 kts 112°
2026-04-25 19:20 20.46777 -31.82478 36936 ft 551 kts 112°
2026-04-25 19:21 20.43876 -31.74907 36937 ft 551 kts 112°
2026-04-25 19:21 20.39269 -31.63679 36935 ft 551 kts 116°
2026-04-25 19:22 20.35966 -31.56367 36935 ft 551 kts 117°
2026-04-25 19:23 20.31015 -31.45300 36936 ft 552 kts 116°
2026-04-25 19:23 20.26126 -31.34186 36935 ft 552 kts 116°
2026-04-25 19:24 20.22863 -31.26777 36936 ft 552 kts 116°
2026-04-25 19:25 20.16344 -31.12036 36936 ft 552 kts 116°
2026-04-25 19:25 20.13072 -31.04645 36938 ft 552 kts 116°
2026-04-25 19:26 20.09815 -30.97314 36945 ft 552 kts 116°
2026-04-25 19:26 20.06534 -30.89936 36944 ft 552 kts 116°
2026-04-25 19:27 20.04340 -30.85000 36945 ft 552 kts 116°
2026-04-25 19:27 19.99971 -30.75183 36944 ft 552 kts 116°
2026-04-25 19:28 19.96684 -30.67818 36955 ft 550 kts 116°
2026-04-25 19:28 19.93429 -30.60537 36936 ft 548 kts 116°
2026-04-25 19:29 19.90161 -30.53233 36940 ft 546 kts 116°
2026-04-25 19:29 19.86902 -30.45955 36944 ft 545 kts 116°
2026-04-25 19:30 19.83648 -30.38697 36944 ft 544 kts 116°
2026-04-25 19:30 19.80390 -30.31440 36947 ft 544 kts 117°
2026-04-25 19:31 19.77145 -30.24233 36944 ft 546 kts 117°
2026-04-25 19:31 19.73868 -30.16956 36947 ft 547 kts 117°
2026-04-25 19:32 19.70581 -30.09659 36946 ft 548 kts 117°
2026-04-25 19:32 19.68378 -30.04775 36944 ft 549 kts 117°
2026-04-25 19:33 19.63983 -29.95053 36944 ft 549 kts 117°
2026-04-25 19:33 19.60700 -29.87799 36943 ft 549 kts 117°
2026-04-25 19:34 19.57398 -29.80511 36943 ft 548 kts 117°
2026-04-25 19:34 19.54099 -29.73236 36943 ft 547 kts 117°
2026-04-25 19:35 19.50796 -29.65972 36947 ft 546 kts 117°
2026-04-25 19:35 19.47497 -29.58725 36943 ft 546 kts 117°
2026-04-25 19:36 19.44226 -29.51542 36944 ft 544 kts 117°
2026-04-25 19:36 19.40936 -29.44330 36946 ft 543 kts 117°
2026-04-25 19:37 19.37646 -29.37126 36943 ft 543 kts 117°
2026-04-25 19:37 19.34357 -29.29936 36947 ft 542 kts 117°
2026-04-25 19:38 19.31089 -29.22799 36944 ft 542 kts 117°
2026-04-25 19:38 19.27801 -29.15627 36946 ft 541 kts 117°
2026-04-25 19:39 19.24515 -29.08461 36944 ft 541 kts 118°
2026-04-25 19:39 19.21223 -29.01301 36945 ft 541 kts 118°
2026-04-25 19:40 19.17954 -28.94195 36947 ft 541 kts 118°
2026-04-25 19:40 19.14663 -28.87048 36943 ft 540 kts 118°
2026-04-25 19:41 19.11368 -28.79911 36945 ft 540 kts 118°
2026-04-25 19:41 19.09185 -28.75186 36944 ft 540 kts 118°
2026-04-25 19:42 19.04799 -28.65700 36943 ft 539 kts 118°
2026-04-25 19:42 19.01505 -28.58581 36944 ft 539 kts 118°
2026-04-25 19:43 18.98212 -28.51472 36945 ft 539 kts 118°
2026-04-25 19:43 18.94912 -28.44365 36944 ft 538 kts 118°
2026-04-25 19:44 18.91634 -28.37313 36944 ft 539 kts 118°
2026-04-25 19:44 18.88331 -28.30215 36946 ft 538 kts 118°
2026-04-25 19:45 18.85031 -28.23126 36946 ft 538 kts 118°
2026-04-25 19:45 18.81727 -28.16050 36943 ft 537 kts 118°
2026-04-25 19:46 18.78427 -28.08981 36945 ft 536 kts 118°
2026-04-25 19:46 18.75153 -28.01975 36943 ft 535 kts 118°
2026-04-25 19:47 18.71862 -27.94939 36944 ft 534 kts 118°
2026-04-25 19:47 18.68571 -27.87920 36944 ft 534 kts 118°
2026-04-25 19:48 18.65282 -27.80913 36947 ft 533 kts 118°
2026-04-25 19:48 18.62018 -27.73959 36943 ft 532 kts 118°
2026-04-25 19:49 18.59821 -27.69284 36944 ft 532 kts 118°
2026-04-25 19:49 18.55445 -27.59990 36944 ft 532 kts 118°
2026-04-25 19:50 18.50506 -27.49515 36945 ft 532 kts 118°
2026-04-25 19:51 18.47231 -27.42582 36946 ft 532 kts 118°
2026-04-25 19:51 18.43930 -27.35600 36940 ft 533 kts 118°
2026-04-25 19:52 18.40624 -27.28612 36935 ft 533 kts 118°
2026-04-25 19:52 18.37319 -27.21631 36936 ft 533 kts 119°
2026-04-25 19:53 18.34031 -27.14701 36935 ft 533 kts 119°
2026-04-25 19:53 18.30719 -27.07728 36936 ft 533 kts 119°
2026-04-25 19:54 18.27399 -27.00749 36932 ft 533 kts 119°
2026-04-25 19:54 18.24083 -26.93781 36936 ft 533 kts 119°
2026-04-25 19:55 18.20765 -26.86815 36934 ft 533 kts 119°
2026-04-25 19:55 18.17468 -26.79903 36936 ft 532 kts 119°
2026-04-25 19:56 18.14147 -26.72949 36936 ft 532 kts 119°
2026-04-25 19:56 18.10825 -26.66002 36934 ft 532 kts 119°
2026-04-25 19:57 18.07504 -26.59063 36936 ft 531 kts 119°
2026-04-25 19:57 18.04206 -26.52182 36932 ft 530 kts 119°
2026-04-25 19:58 18.00887 -26.45264 36936 ft 530 kts 119°
2026-04-25 19:58 17.97568 -26.38354 36939 ft 529 kts 119°
2026-04-25 19:59 17.94816 -26.32628 36934 ft 528 kts 119°
2026-04-25 19:59 17.91503 -26.25744 36933 ft 527 kts 119°
2026-04-25 20:00 17.87660 -26.17770 36936 ft 527 kts 119°
2026-04-25 20:00 17.84350 -26.10906 36936 ft 527 kts 119°
2026-04-25 20:01 17.79376 -26.00623 36936 ft 527 kts 120°
2026-04-25 20:01 17.76494 -25.94991 36936 ft 527 kts 121°
2026-04-25 20:02 17.72943 -25.88270 36935 ft 527 kts 122°
2026-04-25 20:02 17.69420 -25.81585 36936 ft 527 kts 121°
2026-04-25 20:03 17.65893 -25.74839 36937 ft 527 kts 121°
2026-04-25 20:03 17.62375 -25.68093 36936 ft 527 kts 121°
2026-04-25 20:04 17.58856 -25.61351 36933 ft 527 kts 121°
2026-04-25 20:04 17.55330 -25.54615 36935 ft 527 kts 121°
2026-04-25 20:05 17.51830 -25.47933 36936 ft 526 kts 121°
2026-04-25 20:05 17.48306 -25.41213 36932 ft 526 kts 121°
2026-04-25 20:06 17.44785 -25.34501 36935 ft 526 kts 121°
2026-04-25 20:06 17.41261 -25.27791 36936 ft 526 kts 121°
2026-04-25 20:07 17.37757 -25.21132 36937 ft 526 kts 121°
2026-04-25 20:07 17.34231 -25.14433 36935 ft 526 kts 121°
2026-04-25 20:08 17.30703 -25.07737 36935 ft 525 kts 121°
2026-04-25 20:08 17.27172 -25.01046 36935 ft 526 kts 121°
2026-04-25 20:09 17.23658 -24.94387 36936 ft 526 kts 121°
2026-04-25 20:09 17.20124 -24.87696 36936 ft 526 kts 121°
2026-04-25 20:10 17.16587 -24.81009 36934 ft 525 kts 121°
2026-04-25 20:10 17.13044 -24.74322 36936 ft 525 kts 121°
2026-04-25 20:11 17.09525 -24.67686 36938 ft 525 kts 121°
2026-04-25 20:11 17.05981 -24.61007 36934 ft 525 kts 121°
2026-04-25 20:12 17.02439 -24.54338 36935 ft 525 kts 121°
2026-04-25 20:12 16.99493 -24.48796 36935 ft 525 kts 121°
2026-04-25 20:13 16.95349 -24.41009 36935 ft 525 kts 121°
2026-04-25 20:13 16.91801 -24.34352 36938 ft 524 kts 121°
2026-04-25 20:14 16.88278 -24.27744 36934 ft 524 kts 121°
2026-04-25 20:14 16.84729 -24.21096 36934 ft 524 kts 121°
2026-04-25 20:15 16.81182 -24.14453 36935 ft 524 kts 121°
2026-04-25 20:15 16.77630 -24.07815 36937 ft 524 kts 121°
2026-04-25 20:16 16.74101 -24.01226 36933 ft 524 kts 121°
2026-04-25 20:16 16.70548 -23.94596 36935 ft 523 kts 121°
2026-04-25 20:17 16.66993 -23.87969 36935 ft 524 kts 121°
2026-04-25 20:17 16.63436 -23.81340 36935 ft 524 kts 121°
2026-04-25 20:18 16.59876 -23.74716 36935 ft 524 kts 121°
2026-04-25 20:18 16.56340 -23.68145 36937 ft 523 kts 121°
2026-04-25 20:19 16.52781 -23.61536 36934 ft 523 kts 121°
2026-04-25 20:19 16.49223 -23.54932 36934 ft 522 kts 121°
2026-04-25 20:20 16.45665 -23.48336 36935 ft 522 kts 121°
2026-04-25 20:20 16.42126 -23.41782 36934 ft 523 kts 121°
2026-04-25 20:21 16.38559 -23.35183 36937 ft 523 kts 121°
2026-04-25 20:21 16.34988 -23.28580 36935 ft 524 kts 121°
2026-04-25 20:22 16.32016 -23.23091 36936 ft 524 kts 121°
2026-04-25 20:22 16.27828 -23.15368 36936 ft 524 kts 121°
2026-04-25 20:23 16.24269 -23.08806 36936 ft 524 kts 121°
2026-04-25 20:23 16.20685 -23.02203 36946 ft 524 kts 121°
2026-04-25 20:24 16.17100 -22.95605 36946 ft 524 kts 121°
2026-04-25 20:24 16.13514 -22.89013 36944 ft 523 kts 121°
2026-04-25 20:25 16.09994 -22.82447 36936 ft 524 kts 121°
2026-04-25 20:25 16.06486 -22.75815 36934 ft 523 kts 121°
2026-04-25 20:26 16.02977 -22.69186 36934 ft 523 kts 121°
2026-04-25 20:26 15.99459 -22.62569 36936 ft 523 kts 121°
2026-04-25 20:27 15.95942 -22.55965 36936 ft 522 kts 121°
2026-04-25 20:27 15.92450 -22.49414 36935 ft 522 kts 121°
2026-04-25 20:28 15.88902 -22.42768 36945 ft 530 kts 121°
2026-04-25 20:28 15.85357 -22.36126 36928 ft 519 kts 121°
2026-04-25 20:29 15.81870 -22.29600 36935 ft 515 kts 121°
2026-04-25 20:29 15.78431 -22.23170 36927 ft 511 kts 121°
2026-04-25 20:30 15.74990 -22.16740 36935 ft 509 kts 121°
2026-04-25 20:30 15.71544 -22.10317 36937 ft 509 kts 121°
2026-04-25 20:31 15.68095 -22.03888 36938 ft 511 kts 121°
2026-04-25 20:31 15.64634 -21.97438 36937 ft 512 kts 121°
2026-04-25 20:32 15.61184 -21.91020 36936 ft 513 kts 121°
2026-04-25 20:32 15.57703 -21.84551 36935 ft 513 kts 121°
2026-04-25 20:33 15.54226 -21.78090 36934 ft 512 kts 121°
2026-04-25 20:33 15.51341 -21.72734 36933 ft 511 kts 121°
2026-04-25 20:34 15.47316 -21.65267 36932 ft 510 kts 121°
2026-04-25 20:34 15.43858 -21.58859 36930 ft 509 kts 121°
2026-04-25 20:35 15.40403 -21.52463 36927 ft 508 kts 121°
2026-04-25 20:35 15.36952 -21.46079 36933 ft 507 kts 121°
2026-04-25 20:36 15.33528 -21.39749 36928 ft 507 kts 121°
2026-04-25 20:36 15.30079 -21.33383 36927 ft 506 kts 121°
2026-04-25 20:37 15.26634 -21.27025 36931 ft 506 kts 121°
2026-04-25 20:37 15.23185 -21.20667 36914 ft 506 kts 121°
2026-04-25 20:38 15.19734 -21.14313 36918 ft 506 kts 121°
2026-04-25 20:38 15.16305 -21.08004 36926 ft 506 kts 121°
2026-04-25 20:39 15.12541 -21.01878 36907 ft 503 kts 132°
2026-04-25 20:39 15.08456 -20.97642 36929 ft 500 kts 141°
2026-04-25 20:40 15.02368 -20.92076 36908 ft 501 kts 137°
2026-04-25 20:40 14.98254 -20.86246 36931 ft 507 kts 118°
2026-04-25 20:41 14.95305 -20.79532 36914 ft 524 kts 113°
2026-04-25 20:41 14.92520 -20.72542 36900 ft 526 kts 112°
2026-04-25 20:42 14.89758 -20.65540 36900 ft 526 kts 112°
2026-04-25 20:42 14.87003 -20.58541 36900 ft 525 kts 112°
2026-04-25 20:43 14.84265 -20.51594 36886 ft 525 kts 112°
2026-04-25 20:43 14.81507 -20.44603 36891 ft 525 kts 112°
2026-04-25 20:44 14.78744 -20.37621 36893 ft 525 kts 112°
2026-04-25 20:44 14.75974 -20.30648 36889 ft 524 kts 112°
2026-04-25 20:45 14.73197 -20.23684 36881 ft 524 kts 112°
2026-04-25 20:45 14.70416 -20.16730 36876 ft 521 kts 112°
2026-04-25 20:46 14.67681 -20.09907 36873 ft 516 kts 112°
2026-04-25 20:46 14.64933 -20.03071 36881 ft 515 kts 112°
2026-04-25 20:47 14.62195 -19.96284 36852 ft 497 kts 112°
2026-04-25 20:47 14.60899 -19.93085 36852 ft 476 kts 112°
2026-04-25 20:47 14.59625 -19.89942 36875 ft 476 kts 112°
2026-04-25 20:48 14.57039 -19.83577 36884 ft 485 kts 113°
2026-04-25 20:48 14.54443 -19.77196 36870 ft 485 kts 113°
2026-04-25 20:49 14.51829 -19.70781 36867 ft 484 kts 113°
2026-04-25 20:49 14.49222 -19.64388 36869 ft 482 kts 113°
2026-04-25 20:50 14.46619 -19.58016 36869 ft 481 kts 113°
2026-04-25 20:50 14.44035 -19.51699 36860 ft 481 kts 113°
2026-04-25 20:51 14.41434 -19.45344 36810 ft 480 kts 113°
2026-04-25 20:51 14.40133 -19.42169 36682 ft 481 kts 113°
2026-04-25 20:51 14.38827 -19.38984 36531 ft 482 kts 113°
2026-04-25 20:52 14.37518 -19.35794 36354 ft 484 kts 113°
2026-04-25 20:52 14.36648 -19.33674 36239 ft 485 kts 113°
2026-04-25 20:52 14.34883 -19.29389 36062 ft 486 kts 113°
2026-04-25 20:52 14.33578 -19.26228 35926 ft 486 kts 113°
2026-04-25 20:53 14.32251 -19.23020 35753 ft 487 kts 113°
2026-04-25 20:53 14.30919 -19.19804 35587 ft 488 kts 113°
2026-04-25 20:53 14.29583 -19.16580 35409 ft 489 kts 113°
2026-04-25 20:53 14.28297 -19.13332 35187 ft 490 kts 108°
2026-04-25 20:54 14.27319 -19.09958 34944 ft 492 kts 103°
2026-04-25 20:54 14.26510 -19.06527 34754 ft 493 kts 102°
2026-04-25 20:54 14.25730 -19.03088 34574 ft 493 kts 102°
2026-04-25 20:54 14.24909 -18.99653 34424 ft 493 kts 103°
2026-04-25 20:55 14.23132 -18.92878 34364 ft 487 kts 105°
2026-04-25 20:55 14.21279 -18.86253 34171 ft 484 kts 105°
2026-04-25 20:56 14.20337 -18.82921 34001 ft 484 kts 105°
2026-04-25 20:56 14.19394 -18.79591 33842 ft 484 kts 105°
2026-04-25 20:56 14.18453 -18.76258 33712 ft 484 kts 105°
2026-04-25 20:56 14.17515 -18.72929 33610 ft 483 kts 105°
2026-04-25 20:57 14.15651 -18.66303 33392 ft 480 kts 105°
2026-04-25 20:57 14.13810 -18.59757 33201 ft 478 kts 105°
2026-04-25 20:58 14.12885 -18.56474 33100 ft 476 kts 105°
2026-04-25 20:58 14.11962 -18.53200 32980 ft 476 kts 105°
2026-04-25 20:58 14.11040 -18.49927 32762 ft 476 kts 105°
2026-04-25 20:58 14.10118 -18.46657 32510 ft 474 kts 105°
2026-04-25 20:59 14.09200 -18.43409 32254 ft 471 kts 105°
2026-04-25 20:59 14.08289 -18.40184 32004 ft 467 kts 104°
2026-04-25 20:59 14.07384 -18.36982 31751 ft 464 kts 104°
2026-04-25 20:59 14.06481 -18.33789 31497 ft 469 kts 104°
2026-04-25 21:00 14.05557 -18.30514 30979 ft 484 kts 104°
2026-04-25 21:00 14.05250 -18.29428 30699 ft 491 kts 104°
2026-04-25 21:00 14.02594 -18.20041 28971 ft 524 kts 104°
2026-04-25 21:01 14.01570 -18.16433 28611 ft 525 kts 105°
2026-04-25 21:01 14.00545 -18.12828 28181 ft 523 kts 105°
2026-04-25 21:01 13.99528 -18.09255 27716 ft 517 kts 105°
2026-04-25 21:01 13.98549 -18.05728 27266 ft 506 kts 102°
2026-04-25 21:02 13.98168 -18.02150 26785 ft 503 kts 85°
2026-04-25 21:02 13.98780 -17.98637 26355 ft 497 kts 71°
2026-04-25 21:02 14.00137 -17.95390 25918 ft 492 kts 58°
2026-04-25 21:02 14.02112 -17.92563 25466 ft 482 kts 50°
2026-04-25 21:03 14.04171 -17.89870 24997 ft 466 kts 50°
2026-04-25 21:03 14.06125 -17.87286 24542 ft 454 kts 51°
2026-04-25 21:03 14.08018 -17.84755 24104 ft 450 kts 51°
2026-04-25 21:03 14.09905 -17.82207 23647 ft 444 kts 52°
2026-04-25 21:04 14.11760 -17.79683 23200 ft 440 kts 52°
2026-04-25 21:04 14.13600 -17.77168 22691 ft 439 kts 52°
2026-04-25 21:04 14.15431 -17.74661 22163 ft 437 kts 52°
2026-04-25 21:04 14.17255 -17.72160 21647 ft 435 kts 52°
2026-04-25 21:05 14.19068 -17.69675 21118 ft 432 kts 52°
2026-04-25 21:05 14.20863 -17.67212 20595 ft 427 kts 52°
2026-04-25 21:05 14.22503 -17.64737 20062 ft 422 kts 59°
2026-04-25 21:05 14.23721 -17.61998 19539 ft 420 kts 70°
2026-04-25 21:06 14.24436 -17.59089 19015 ft 418 kts 81°
2026-04-25 21:06 14.24643 -17.56115 18495 ft 415 kts 90°
2026-04-25 21:06 14.24564 -17.53149 17983 ft 412 kts 92°
2026-04-25 21:06 14.24463 -17.51200 17668 ft 410 kts 93°
2026-04-25 21:07 14.24228 -17.47295 17036 ft 406 kts 94°
2026-04-25 21:07 14.24049 -17.44401 16560 ft 403 kts 94°
2026-04-25 21:07 14.23870 -17.41529 16085 ft 400 kts 94°
2026-04-25 21:07 14.23692 -17.38717 15620 ft 395 kts 95°
2026-04-25 21:08 14.23237 -17.35944 15130 ft 392 kts 106°
2026-04-25 21:08 14.22279 -17.33334 14661 ft 388 kts 117°
2026-04-25 21:08 14.20860 -17.30989 14203 ft 383 kts 128°
2026-04-25 21:08 14.19174 -17.28880 13763 ft 379 kts 132°
2026-04-25 21:09 14.15682 -17.24872 12869 ft 372 kts 134°
2026-04-25 21:09 14.14004 -17.22876 12404 ft 366 kts 127°
2026-04-25 21:09 14.12766 -17.20594 11948 ft 366 kts 113°
2026-04-25 21:10 14.12010 -17.18135 11523 ft 364 kts 106°
2026-04-25 21:10 14.11405 -17.15613 11079 ft 361 kts 104°
2026-04-25 21:10 14.10827 -17.13101 10623 ft 360 kts 104°
2026-04-25 21:10 14.10361 -17.10610 10150 ft 350 kts 93°
2026-04-25 21:11 14.10786 -17.08147 9682 ft 354 kts 65°
2026-04-25 21:11 14.12249 -17.06129 9239 ft 353 kts 39°
2026-04-25 21:11 14.14395 -17.05013 8790 ft 345 kts 12°
2026-04-25 21:11 14.16739 -17.04926 8332 ft 329 kts 355°
2026-04-25 21:12 14.18965 -17.05040 7868 ft 322 kts 358°
2026-04-25 21:12 14.21161 -17.05170 7371 ft 304 kts 354°
2026-04-25 21:12 14.23186 -17.05397 6874 ft 282 kts 353°
2026-04-25 21:12 14.24475 -17.05553 6530 ft 271 kts 353°
2026-04-25 21:13 14.26929 -17.05845 5920 ft 269 kts 353°
2026-04-25 21:13 14.28788 -17.06057 5443 ft 265 kts 354°
2026-04-25 21:13 14.30618 -17.06256 4978 ft 264 kts 354°
2026-04-25 21:13 14.32447 -17.06452 4509 ft 264 kts 354°
2026-04-25 21:14 14.34246 -17.06641 4046 ft 263 kts 354°
2026-04-25 21:14 14.36064 -17.06830 3568 ft 263 kts 354°
2026-04-25 21:14 14.37876 -17.07023 3188 ft 259 kts 355°
2026-04-25 21:14 14.39624 -17.07123 3156 ft 241 kts 358°
2026-04-25 21:15 14.41253 -17.07150 3459 ft 232 kts 359°
2026-04-25 21:15 14.42925 -17.07160 3890 ft 247 kts 359°
2026-04-25 21:15 14.44665 -17.07169 4019 ft 254 kts 359°
2026-04-25 21:15 14.46432 -17.07176 3968 ft 256 kts 359°
2026-04-25 21:16 14.48226 -17.07188 3611 ft 257 kts 359°
2026-04-25 21:16 14.49978 -17.07196 3259 ft 242 kts 359°
2026-04-25 21:16 14.51548 -17.07202 2958 ft 217 kts 359°
2026-04-25 21:16 14.53009 -17.07211 2716 ft 204 kts 359°
2026-04-25 21:17 14.54361 -17.07217 2462 ft 187 kts 359°
2026-04-25 21:17 14.55620 -17.07224 2242 ft 180 kts 359°
2026-04-25 21:17 14.56884 -17.07232 1972 ft 181 kts 359°
2026-04-25 21:17 14.58132 -17.07239 1727 ft 177 kts 359°
2026-04-25 21:18 14.59313 -17.07247 1491 ft 162 kts 359°
2026-04-25 21:18 14.60384 -17.07252 1289 ft 144 kts 359°
2026-04-25 21:18 14.61331 -17.07258 1108 ft 132 kts 359°
2026-04-25 21:18 14.62246 -17.07262 943 ft 134 kts 359°
2026-04-25 21:19 14.63163 -17.07264 772 ft 131 kts 359°
2026-04-25 21:19 14.64094 -17.07259 572 ft 135 kts 359°
2026-04-25 21:19 14.65028 -17.07269 381 ft 134 kts 359°
2026-04-25 21:19 14.65962 -17.07274 274 ft 131 kts 359°
2026-04-25 21:20 14.66769 -17.07281 273 ft 97 kts 360°
2026-04-25 21:20 14.67147 -17.07283 272 ft 67 kts 359°
2026-04-25 21:20 14.67688 -17.07252 267 ft 46 kts 18°
2026-04-25 21:20 14.67828 -17.07147 267 ft 21 kts 78°
2026-04-25 21:21 14.67764 -17.07092 270 ft 13 kts 181°
2026-04-25 21:21 14.67671 -17.07094 271 ft 14 kts 181°
2026-04-25 21:21 14.67567 -17.07095 270 ft 16 kts 179°
2026-04-25 21:21 14.67450 -17.07093 270 ft 18 kts 179°
2026-04-25 21:22 14.67323 -17.07092 271 ft 19 kts 179°
2026-04-25 21:22 14.67194 -17.07093 272 ft 19 kts 180°
2026-04-25 21:22 14.67065 -17.07091 272 ft 19 kts 179°
2026-04-25 21:22 14.66928 -17.07089 271 ft 20 kts 179°
2026-04-25 21:23 14.66786 -17.07088 272 ft 20 kts 180°
2026-04-25 21:23 14.66669 -17.07054 273 ft 18 kts 114°
2026-04-25 21:23 14.66664 -17.06943 276 ft 11 kts 89°
2026-04-25 21:23 14.66682 -17.06877 276 ft 8 kts 29°
2026-04-25 21:24 14.66737 -17.06871 276 ft 7 kts
2026-04-25 21:24 14.66758 -17.06871 276 ft 0 kts